Needles, CA

11:50 PM PDT on April 21, 2018 (GMT -0700)
Needles

Weather History for KEED - February, 2012

Change the Weather History Date:

Friday, February 3, 2012

  Actual Average Record
Temperature  
Mean Temperature 57 °F 56 °F  
Max Temperature 66 °F 67 °F 84 °F (2018)
Min Temperature 48 °F 45 °F 26 °F (1932)
Degree Days  
Heating Degree Days 8    
Cooling Degree Days 0    
Growing Degree Days 7 (Base 50)    
Moisture  
Dew Point 21 °F    
Average Humidity 25    
Maximum Humidity 32    
Minimum Humidity 18    
Precipitation  
Precipitation 0.00 in 0.03 in 1.50 in (1905)
Month to date precipitation 0.08  
Year to date precipitation 0.80  
Sea Level Pressure  
Sea Level Pressure 30.04 in    
Wind  
Wind Speed 11 mph (North)    
Max Wind Speed 21 mph    
Max Gust Speed 29 mph    
Visibility 10 miles    
Events      
T = Trace of Precipitation, MM = Missing Value Source: NWS Daily Summary

Daily Weather History Graph

Daily Weather History Graph

Search for Another Location

Airport or City:

Astronomy

Feb. 03, 2012 Rise Set
Actual Time 6:35 AM PST 5:09 PM PST
Civil Twilight 6:09 AM PST 5:35 PM PST
Nautical Twilight 5:39 AM PST 6:05 PM PST
Astronomical Twilight 5:09 AM PST 6:35 PM PST
Moon 1:19 PM PST (2/3) 3:09 AM PST (2/3)
Length of Visible Light 11h 26m
Length of Day
10h 33m
Waxing Gibbous, 82% of the Moon is Illuminated
Feb 3
Waxing Gibbous
Feb 7
Full
Feb 14
Last Quarter
Feb 21
New
Feb 29
First Quarter

Hourly Weather History & Observations

Time (PST) Temp. Dew Point Humidity Pressure Visibility Wind Dir Wind Speed Gust Speed Precip Events Conditions
12:56 AM 52.0 °F 19.9 °F 28% 30.00 in 10.0 mi North 10.4 mph - N/A   Clear
1:56 AM 51.1 °F 19.0 °F 28% 30.01 in 10.0 mi North 8.1 mph - N/A   Clear
2:56 AM 50.0 °F 19.0 °F 29% 30.01 in 10.0 mi NNW 9.2 mph - N/A   Clear
3:56 AM 50.0 °F 18.0 °F 28% 30.01 in 10.0 mi NNW 8.1 mph - N/A   Clear
4:56 AM 51.1 °F 19.0 °F 28% 30.01 in 10.0 mi North 13.8 mph - N/A   Clear
5:56 AM 48.0 °F 18.0 °F 30% 30.04 in 10.0 mi NW 8.1 mph - N/A   Clear
6:56 AM 48.0 °F 19.0 °F 32% 30.05 in 10.0 mi North 8.1 mph - N/A   Clear
7:56 AM 53.1 °F 21.0 °F 29% 30.07 in 10.0 mi North 15.0 mph - N/A   Clear
8:56 AM 55.9 °F 21.9 °F 27% 30.07 in 10.0 mi North 17.3 mph - N/A   Clear
9:56 AM 60.1 °F 21.9 °F 23% 30.08 in 10.0 mi NNE 20.7 mph 28.8 mph N/A   Clear
10:56 AM 62.1 °F 21.9 °F 21% 30.07 in 10.0 mi NNE 19.6 mph 25.3 mph N/A   Clear
11:56 AM 63.0 °F 21.9 °F 21% 30.05 in 10.0 mi NNE 16.1 mph 24.2 mph N/A   Clear
12:56 PM 64.9 °F 21.9 °F 19% 30.03 in 10.0 mi NNE 15.0 mph 19.6 mph N/A   Clear
1:56 PM 66.0 °F 21.0 °F 18% 30.01 in 10.0 mi NNE 13.8 mph 21.9 mph N/A   Clear
2:56 PM 66.0 °F 21.0 °F 18% 30.01 in 10.0 mi NNE 9.2 mph - N/A   Clear
3:56 PM 66.0 °F 21.0 °F 18% 30.01 in 10.0 mi NNE 13.8 mph 17.3 mph N/A   Clear
4:56 PM 63.0 °F 21.9 °F 21% 30.01 in 10.0 mi NE 9.2 mph - N/A   Clear
5:56 PM 59.0 °F 21.9 °F 24% 30.03 in 10.0 mi North 5.8 mph - N/A   Clear
6:56 PM 57.0 °F 21.9 °F 26% 30.04 in 10.0 mi NNW 8.1 mph - N/A   Clear
7:56 PM 55.0 °F 21.0 °F 27% 30.04 in 10.0 mi NW 6.9 mph - N/A   Clear
8:56 PM 55.0 °F 21.0 °F 27% 30.05 in 10.0 mi Calm Calm - N/A   Clear
9:56 PM 54.0 °F 21.0 °F 28% 30.05 in 10.0 mi NW 5.8 mph - N/A   Clear
10:56 PM 55.0 °F 21.0 °F 27% 30.05 in 10.0 mi North 9.2 mph - N/A   Clear
11:56 PM 54.0 °F 21.0 °F 28% 30.06 in 10.0 mi North 9.2 mph - N/A   Clear